Regional Weather Roundup
Issued by NWS

Home | Current Version | Previous Version | Graphics & Text | Print | Product List | Glossary On
Versions: 1 2 3 4 5 6 7 8 9 10 11 12 13 14 15 16 17 18 19 20 21 22 23 24 25 26 27 28 29 30 31 32 33 34 35 36 37 38 39 40 41 42 43 44 45 46 47 48 49 50
000
ASUS45 KPSR 022300
RWRAZ

ARIZONA HOURLY REGIONAL WEATHER ROUNDUP
NATIONAL WEATHER SERVICE PHOENIX AZ
400 PM MST THU JUL 02 2015

NOTE: FAIR INDICATES FEW OR NO CLOUDS BELOW 12,000 FEET WITH NO
SIGNIFICANT WEATHER AND/OR OBSTRUCTIONS TO VISIBILITY.

AZZ001>003-036-030000-
NORTHWEST ARIZONA

CITY           SKY/WX    TMP DP  RH WIND       PRES   REMARKS
KINGMAN        SUNNY     98  51  20 W14G23    29.98F
$$

AZZ004>008-015-016-018-030000-
NORTH CENTRAL ARIZONA

CITY           SKY/WX    TMP DP  RH WIND       PRES   REMARKS
GRAND CANYON   MOSUNNY   86  48  26 VRB6      30.21F
WILLIAMS       LGT RAIN  70  52  52 CALM      30.29F
PRESCOTT       PTSUNNY   90  55  30 SW15      30.09F
FLAGSTAFF      NOT AVBL
PAYSON         MOSUNNY   91  52  25 W13       30.09F
PAGE           PTSUNNY  100  48  17 W10G22    29.97F
$$

AZZ009>014-017-030000-
NORTHEAST ARIZONA

CITY           SKY/WX    TMP DP  RH WIND       PRES   REMARKS
WINSLOW        NOT AVBL
SAINT JOHNS    MOSUNNY   86  51  29 NW7       30.10F
SHOW LOW       MOSUNNY   86  43  22 NW7       30.17F
$$

AZZ023-030000-
GREATER PHOENIX AREA

CITY           SKY/WX    TMP DP  RH WIND       PRES   REMARKS
PHOENIX        MOSUNNY  105  55  19 W8G22     29.77F HX 104
GLENDALE       MOSUNNY  106  55  18 S15G25    29.79F HX 105
DEER VALLEY    SUNNY    103  55  20 SW15      29.79F HX 101
SCOTTSDALE     SUNNY    103  55  20 VRB6G17   29.81F HX 101
MESA-GATEWAY   MOSUNNY  102  59  24 W10       29.82F HX 102
CHANDLER       MOSUNNY  104  57  21 SW17      29.79F HX 103
$$

AZZ027-028-030000-
SOUTHWEST MARICOPA COUNTY AND PINAL COUNTY

CITY           SKY/WX    TMP DP  RH WIND       PRES   REMARKS
CASA GRANDE    SUNNY    102  55  21 W13G20    29.81F HX 101
GILA BEND      FAIR     105  54  18 W12G22    29.77F HX 103
$$

AZZ503-504-507>509-030000-
SOUTHEAST ARIZONA

CITY           SKY/WX    TMP DP  RH WIND       PRES   REMARKS
TUCSON         MOSUNNY   99  56  23 W12G20    29.90F
DAVIS-MONTHAN  SUNNY     98  58  26 NW15G22   29.89F
RYAN FIELD     SUNNY     99  57  25 NW9       29.90F
NOGALES        CLOUDY    92  59  33 VRB6      30.01F
SIERRA VISTA   PTSUNNY   89  53  28 NW14G21   30.06F
SAFFORD        SUNNY    103  53  19 NW18G26   29.84F HX 101
$$

AZZ020-021-025-026-031-030000-
SOUTHWEST ARIZONA

CITY           SKY/WX    TMP DP  RH WIND       PRES   REMARKS
YUMA           SUNNY    105  60  22 VRB3      29.76F HX 106
$$

CAZ031-033-041-043-047-048-061-030000-
SOUTHERN CALIFORNIA

CITY           SKY/WX    TMP DP  RH WIND       PRES   REMARKS
DOWNTOWN L.A.  SUNNY     82  61  48 CALM      29.92F
L.A. AIRPORT   MOSUNNY   73  63  70 W14       29.95F
SAN DIEGO      MOSUNNY   76  63  64 NW10      29.96F
BURBANK        SUNNY     88  45  22 SE6       29.93F
ONTARIO        MOSUNNY   92  56  29 W15G21    29.93F
RIVERSIDE      SUNNY     93  50  23 W9G21     29.91F
PALM SPRINGS   SUNNY    108  56  18 N18       29.79F HX 107
EL CENTRO NAS  MOSUNNY  108  56  18 E3        29.74F HX 107
IMPERIAL       SUNNY    106  58  20 VRB6      29.73F HX 106
BLYTHE         SUNNY    105  63  25 NE5       29.75F HX 108
$$

NVZ020-UTZ003-030000-
SOUTHERN NEVADA-UTAH

CITY           SKY/WX    TMP DP  RH WIND       PRES   REMARKS
LAS VEGAS      NOT AVBL
SALT LAKE CITY PTSUNNY   98  37  12 W8        29.99F
$$

NMZ009-TXZ055-030000-
NEW MEXICO-WEST TEXAS

CITY           SKY/WX    TMP DP  RH WIND       PRES   REMARKS
ALBUQUERQUE    CLOUDY    83  49  30 E32       30.06R THUNDER
EL PASO        PTSUNNY   98  49  18 VRB3      29.90F
$$


........................KEY........................
SKY/WX - SKY CONDITION/WEATHER
TMP    - TEMPERATURE IN FAHRENHEIT
DP     - DEW POINT IN FAHRENHEIT
RH     - RELATIVE HUMIDITY IN PERCENT
WIND   - DIRECTION AND SPEED IN MILES PER HOUR (MPH)
VRB    - VARIABLE WIND DIRECTION
PRES   - MEAN SEA LEVEL PRESSURE IN INCHES OF MERCURY
         F - FALLING PRESSURE   R - RISING PRESSURE
         S - STEADY PRESSURE
VSB    - VISIBILITY IN MILES
HX     - HEAT INDEX IN FAHRENHEIT
WCI    - WIND CHILL INDEX IN FAHRENHEIT
TC     - TEMPERATURE IN CELSIUS WHICH IS ALSO KNOWN AS
         TEMPERATURE IN CENTIGRADE
AFB    - AIR FORCE BASE
         LUKE AFB IS LUKE AIR FORCE BASE
         DAVIS-MONTHAN IS DAVIS-MONTHAN AIR FORCE BASE
NAS    - NAVAL AIR STATION
         EL CENTRO NAS IS EL CENTRO NAVAL AIR STATION
N/A    - NOT AVAILABLE



USA.gov is the U.S. government's official web portal to all federal, state and local government web resources and services.